Location: Bogotá
(4.6533°N, 74.0837°W)
Time: 08:18:59
(UTC+00:00)

ISS - Pass Details

Date: 11 July 2024
Orbit: 409 x 423 km, 51.6° (Epoch: 24 July)

Event Time Altitude Azimuth Distance (km) Brightness Sun altitude
Rises 09:48:29 0° 340° (NNW) 2,344 0.1 -15.1°
Reaches altitude 10° 09:50:44 10° 351° (N) 1,486 -0.8 -14.6°
Maximum altitude 09:53:42 29° 54° (NE) 793 -1.5 -13.9°
Drops below altitude 10° 09:56:40 10° 116° (ESE) 1,498 -0.4 -13.3°
Sets 09:58:56 0° 128° (SE) 2,366 0.5 -12.7°
